Location: *
(38.9800°N, 16.0500°E)
Time: 08:08:37
(UTC+00:00)

STARLINK-1054 - Pass Details

Date: 07 April 2020
Orbit: 548 x 551 km, 53.0° (Epoch: 30 May)

Event Time Altitude Azimuth Distance (km) Brightness Sun altitude
Exits shadow 02:10:23 43° 103° (ESE) 781 4.6 -26.0°
Drops below altitude 10° 02:13:43 10° 60° (ENE) 1,826 7.3 -25.5°
Sets 02:16:01 0° 54° (NE) 2,724 8.6 -25.1°
